Flag for Guatemala Weather past 2 weeks in Escuintla, Guatemala

Now
66 °F

Partly cloudy.


Feels Like: 66 °F
Forecast: 70 / 90 °F
Wind: 9 mph from North

Location: Guatemala Aeropuertola Aurora

Current Time: Aug 28, 2015 at 12:20:07 AM

Latest Report: Aug 27, 2015 at 11:00 PM


Visibility: N/A

Pressure: 30.30 "Hg

Humidity: 88%

Dew point: 63 °F

Location of EscuintlaLocation

Historic Weather in Escuintla — Graph

°F

Escuintla temperature yesterday

Maximum temperature yesterday: 81 °F (at 2:00 PM)
Minimum temperature yesterday: 63 °F (at 6:00 AM)
Average temperature yesterday: 69 °F

Past Weeks' High & Low Weather Summary

 TemperatureHumidityPressure
High82 °F (Aug 21, 3:00 PM)100% (Aug 16, 1:00 AM)30.36 "Hg (Aug 16, 1:00 AM)
Low59 °F (Aug 24, 6:00 AM)30% (Aug 22, 4:00 PM)30.18 "Hg (Aug 18, 4:00 PM)
Average69 °F76%30.27 "Hg
* Reported Aug 12 11:00 PM — Aug 27 11:00 PM, Escuintla, Weather by CustomWeather, © 2015

Note: Actual official high and low records may vary slightly from our data, if they occured in-between our weather recording intervals... More about our weather records

Advertising

Escuintla weather history for previous 24 hours

 ConditionsComfort  
Time TempWeatherWind HumidityBarometerVisibility
11:00 PM
Thu, Aug 27
66 °FPartly cloudy.9 mph88%30.30 "HgN/A
10:00 PM64 °FPartly cloudy.5 mph88%30.30 "HgN/A
9:00 PM64 °FPartly cloudy.5 mph94%30.30 "HgN/A
8:00 PM66 °FThunderstorms. Passing clouds.No wind83%30.27 "HgN/A
7:00 PM66 °FThunderstorms. Passing clouds.No wind88%30.24 "HgN/A
6:00 PM68 °FLight rain. Partly sunny.No wind83%N/AN/A
5:00 PM68 °FLight rain. Broken clouds.7 mph83%30.21 "HgN/A
4:00 PM72 °FDrizzle. Broken clouds.7 mph83%30.18 "HgN/A
3:30 PMN/ABroken clouds.5 mphN/AN/AN/A
3:00 PM68 °FDrizzle. Broken clouds.5 mph88%30.21 "HgN/A
2:30 PMN/AThunderstorms.16 mphN/AN/A5 mi
2:00 PM81 °FScattered clouds.12 mph51%30.21 "HgN/A
1:00 PM79 °FBroken clouds.12 mph58%30.27 "HgN/A
12:00 PM77 °FPartly sunny.14 mph61%30.30 "HgN/A
11:00 AM77 °FBroken clouds.14 mph54%30.33 "HgN/A
10:00 AM73 °FBroken clouds.14 mph65%30.33 "HgN/A
9:00 AM70 °FBroken clouds.14 mph73%30.33 "HgN/A
8:00 AM70 °FScattered clouds.14 mph69%30.30 "HgN/A
7:00 AM66 °FSunny.7 mph83%30.30 "Hg10 mi
6:00 AM63 °FSunny.7 mph94%30.27 "Hg10 mi
5:00 AM64 °FPassing clouds.7 mph88%30.27 "HgN/A
4:00 AM64 °FPartly cloudy.12 mph94%30.27 "HgN/A
3:00 AM64 °FPassing clouds.7 mph88%30.27 "HgN/A
2:00 AM66 °FPassing clouds.12 mph88%30.27 "HgN/A
1:00 AM66 °FPassing clouds.16 mph88%30.30 "HgN/A
12:00 AM66 °FPassing clouds.14 mph88%30.33 "HgN/A
Weather by CustomWeather, © 2015

See weather overviewHow to use our weather pages